Location: Mannheim
(49.4880°N, 8.4650°E)
Time: 09:11:57
(UTC+02:00)

ISS - Visible Passes

Search period start: 06 May 2021 00:00
Search period end: 16 May 2021 00:00
Orbit: 418 x 421 km, 51.6° (Epoch: 05 May)

Date Brightness Start Highest point End Pass type
(mag) Time Alt. Az. Time Alt. Az. Time Alt. Az.
06 May -2.3 02:48:19 30° E 02:48:19 30° E 02:50:23 10° ENE visible
06 May -3.4 04:21:16 16° W 04:23:54 65° N 04:27:17 10° ENE visible
07 May -1.0 02:02:24 13° E 02:02:24 13° E 02:02:50 10° E visible
07 May -3.7 03:35:20 40° W 03:36:26 77° NNW 03:39:50 10° ENE visible
07 May -3.2 05:10:06 10° WNW 05:13:27 59° N 05:16:49 10° E visible
08 May -3.6 02:49:24 67° E 02:49:24 67° E 02:52:23 10° ENE visible
08 May -3.1 04:22:37 10° W 04:25:58 57° N 04:29:18 10° E visible
09 May -1.9 02:03:25 24° E 02:03:25 24° E 02:04:56 10° ENE visible
09 May -3.2 03:36:21 20° W 03:38:27 59° N 03:41:49 10° ENE visible
09 May -3.6 05:12:05 10° WNW 05:15:29 78° NNE 05:18:52 10° ESE visible
10 May -0.8 01:17:25 10° ENE 01:17:25 10° ENE 01:17:27 10° ENE visible
10 May -3.4 02:50:21 51° WNW 02:50:58 65° N 02:54:21 10° ENE visible
10 May -3.3 04:24:37 10° WNW 04:28:00 66° N 04:31:23 10° E visible
11 May -3.0 02:04:19 48° ENE 02:04:19 48° ENE 02:06:53 10° ENE visible
11 May -3.2 03:37:15 11° WNW 03:40:30 59° N 03:43:52 10° E visible
12 May -1.7 01:18:14 20° ENE 01:18:14 20° ENE 01:19:26 10° ENE visible
12 May -3.2 02:51:09 23° WNW 02:53:00 57° N 02:56:21 10° E visible
12 May -3.8 04:26:35 10° WNW 04:29:58 84° SSW 04:33:21 10° ESE visible
13 May -3.2 02:04:58 50° NW 02:05:30 59° N 02:08:50 10° ENE visible
13 May -3.7 03:39:07 10° WNW 03:42:31 78° NNE 03:45:54 10° ESE visible
14 May -3.1 01:18:34 52° NE 01:18:34 52° NE 01:21:22 10° ENE visible
14 May -3.4 02:51:39 10° WNW 02:55:01 66° N 02:58:24 10° E visible
14 May -3.4 04:28:33 10° WNW 04:31:47 44° SSW 04:35:01 10° SE visible
14 May -3.0 22:50:50 10° SSW 22:53:52 31° SE 22:55:34 19° E visible
15 May -3.7 00:27:07 10° WSW 00:30:30 77° NNW 00:33:53 10° ENE visible
15 May -3.2 02:04:10 10° WNW 02:07:31 59° N 02:10:52 10° E visible
15 May -3.8 03:41:02 10° WNW 03:44:23 62° SSW 03:47:44 10° SE visible
15 May -2.5 22:03:55 10° SSW 22:06:33 22° SE 22:09:13 10° E visible
15 May -3.9 23:39:39 10° WSW 23:43:02 85° SSE 23:46:25 10° ENE visible
